North Bend, OR

10:33 PM PST on December 09, 2016 (GMT -0800)
North Bend Municipal

Weather History for KOTH - October, 2011

Change the Weather History Date:

Wednesday, October 19, 2011

  Actual Average Record
Temperature  
Mean Temperature 56 °F 53 °F  
Max Temperature 63 °F 61 °F 85 °F (1913)
Min Temperature 48 °F 46 °F 32 °F (1949)
Degree Days  
Heating Degree Days 9 12  
Month to date heating degree days 156 206  
Since 1 July heating degree days 707 814  
Cooling Degree Days 0 0  
Month to date cooling degree days 0 0  
Year to date cooling degree days 1 2  
Growing Degree Days 8 (Base 50)    
Moisture  
Dew Point 49 °F    
Average Humidity 71    
Maximum Humidity 83    
Minimum Humidity 64    
Precipitation  
Precipitation 0.00 in 0.17 in 1.14 in (1946)
Month to date precipitation 2.26 2.26  
Year to date precipitation 30.44 41.08  
Sea Level Pressure  
Sea Level Pressure 30.10 in    
Wind  
Wind Speed 8 mph (SW)    
Max Wind Speed 10 mph    
Max Gust Speed 17 mph    
Visibility 10 miles    
Events      
T = Trace of Precipitation, MM = Missing Value Source: NWS Daily Summary

Daily Weather History Graph

Daily Weather History Graph

Search for Another Location

Airport or City:

Trip Planner

Search our weather history database for the weather conditions in past years. The results will help you decide how hot, cold, wet, or windy it might be!

Date:

Astronomy

Oct. 19, 2011 Rise Set
Actual Time 7:35 AM PDT 6:27 PM PDT
Civil Twilight 7:06 AM PDT 6:56 PM PDT
Nautical Twilight 6:33 AM PDT 7:29 PM PDT
Astronomical Twilight 6:00 AM PDT 8:02 PM PDT
Moon No Moon Rise 2:14 PM PDT (10/19)
Length of Visible Light 11h 49m
Length of Day
10h 51m
Waning Gibbous, 54% of the Moon is Illuminated
Oct 19
Waning Gibbous
Oct 19
Last Quarter
Oct 26
New
Nov 2
First Quarter
Nov 10
Full

Hourly Weather History & Observations

Time (PDT) Temp. Dew Point Humidity Pressure Visibility Wind Dir Wind Speed Gust Speed Precip Events Conditions
12:15 AM 55.4 °F 48.2 °F 77% 30.03 in 5.0 mi SSW 11.5 mph - N/A   Overcast
12:35 AM 55.4 °F 48.2 °F 77% 30.03 in 7.0 mi SSW 11.5 mph 17.3 mph N/A   Overcast
12:55 AM 55.4 °F 48.2 °F 77% 30.03 in 10.0 mi SSW 8.1 mph 17.3 mph N/A   Overcast
1:15 AM 55.4 °F 50.0 °F 82% 30.03 in 10.0 mi South 6.9 mph - N/A   Overcast
1:35 AM 55.4 °F 50.0 °F 82% 30.03 in 10.0 mi South 5.8 mph - N/A   Overcast
1:55 AM 55.4 °F 50.0 °F 82% 30.04 in 10.0 mi South 8.1 mph - N/A   Overcast
2:15 AM 57.2 °F 48.2 °F 72% 30.04 in 10.0 mi SSW 9.2 mph - N/A   Overcast
2:35 AM 57.2 °F 48.2 °F 72% 30.04 in 10.0 mi SSW 10.4 mph - N/A   Overcast
2:55 AM 57.2 °F 48.2 °F 72% 30.04 in 10.0 mi SSW 10.4 mph - N/A   Overcast
3:15 AM 57.2 °F 48.2 °F 72% 30.04 in 10.0 mi SSW 10.4 mph - N/A   Overcast
3:35 AM 57.2 °F 48.2 °F 72% 30.05 in 10.0 mi SSW 10.4 mph - N/A   Overcast
3:55 AM 57.2 °F 48.2 °F 72% 30.05 in 10.0 mi South 10.4 mph - N/A   Overcast
4:15 AM 57.2 °F 48.2 °F 72% 30.04 in 10.0 mi South 10.4 mph - N/A   Overcast
4:35 AM 57.2 °F 48.2 °F 72% 30.06 in 10.0 mi SSW 10.4 mph - N/A   Overcast
4:55 AM 57.2 °F 48.2 °F 72% 30.06 in 10.0 mi South 9.2 mph - N/A   Overcast
5:15 AM 57.2 °F 48.2 °F 72% 30.06 in 10.0 mi SSW 8.1 mph - N/A   Overcast
5:35 AM 57.2 °F 48.2 °F 72% 30.07 in 10.0 mi SSW 9.2 mph - N/A   Overcast
5:55 AM 57.2 °F 48.2 °F 72% 30.07 in 10.0 mi South 9.2 mph - N/A   Overcast
6:15 AM 57.2 °F 48.2 °F 72% 30.07 in 10.0 mi South 9.2 mph - N/A   Overcast
6:35 AM 57.2 °F 48.2 °F 72% 30.07 in 10.0 mi South 9.2 mph - N/A   Overcast
6:55 AM 57.2 °F 48.2 °F 72% 30.08 in 10.0 mi SSW 9.2 mph - N/A   Overcast
7:15 AM 57.2 °F 48.2 °F 72% 30.08 in 10.0 mi South 6.9 mph - N/A   Overcast
7:35 AM 57.2 °F 48.2 °F 72% 30.08 in 10.0 mi South 9.2 mph - N/A   Overcast
7:55 AM 57.2 °F 48.2 °F 72% 30.09 in 10.0 mi South 8.1 mph - N/A   Overcast
8:15 AM 57.2 °F 48.2 °F 72% 30.10 in 10.0 mi South 8.1 mph - N/A   Overcast
8:35 AM 57.2 °F 48.2 °F 72% 30.11 in 10.0 mi South 8.1 mph - N/A   Overcast
8:55 AM 57.2 °F 48.2 °F 72% 30.11 in 10.0 mi South 9.2 mph - N/A   Overcast
9:15 AM 57.2 °F 48.2 °F 72% 30.12 in 10.0 mi SSW 6.9 mph - N/A   Overcast
9:35 AM 57.2 °F 48.2 °F 72% 30.13 in 10.0 mi South 6.9 mph - N/A   Overcast
9:55 AM 57.2 °F 48.2 °F 72% 30.13 in 10.0 mi SSW 6.9 mph - N/A   Overcast
10:15 AM 57.2 °F 48.2 °F 72% 30.13 in 10.0 mi SSW 6.9 mph - N/A   Overcast
10:35 AM 59.0 °F 48.2 °F 67% 30.14 in 10.0 mi SSW 6.9 mph - N/A   Overcast
10:55 AM 59.0 °F 50.0 °F 72% 30.15 in 10.0 mi WSW 9.2 mph - N/A   Mostly Cloudy
11:15 AM 59.0 °F 50.0 °F 72% 30.15 in 10.0 mi SW 8.1 mph - N/A   Overcast
11:35 AM 59.0 °F 50.0 °F 72% 30.16 in 10.0 mi SW 8.1 mph - N/A   Overcast
11:55 AM 59.0 °F 51.8 °F 77% 30.16 in 10.0 mi WSW 8.1 mph - N/A   Overcast
12:15 PM 60.8 °F 50.0 °F 68% 30.17 in 10.0 mi West 5.8 mph - N/A   Overcast
12:35 PM 60.8 °F 50.0 °F 68% 30.16 in 10.0 mi West 5.8 mph - N/A   Overcast
12:55 PM 60.8 °F 48.2 °F 63% 30.16 in 10.0 mi WNW 8.1 mph - N/A   Overcast
1:15 PM 60.8 °F 48.2 °F 63% 30.16 in 10.0 mi West 8.1 mph - N/A   Overcast
1:35 PM 60.8 °F 50.0 °F 68% 30.16 in 10.0 mi WNW 6.9 mph - N/A   Mostly Cloudy
1:55 PM 62.6 °F 50.0 °F 63% 30.16 in 10.0 mi West 8.1 mph - N/A   Scattered Clouds
2:15 PM 60.8 °F 48.2 °F 63% 30.16 in 10.0 mi WNW 8.1 mph - N/A   Mostly Cloudy
2:35 PM 60.8 °F 50.0 °F 68% 30.16 in 10.0 mi WNW 8.1 mph - N/A   Overcast
2:55 PM 60.8 °F 48.2 °F 63% 30.16 in 10.0 mi WNW 8.1 mph - N/A   Overcast
3:15 PM 60.8 °F 50.0 °F 68% 30.16 in 10.0 mi NNW 8.1 mph - N/A   Overcast
3:35 PM 60.8 °F 50.0 °F 68% 30.16 in 10.0 mi NNW 9.2 mph - N/A   Overcast
3:55 PM 60.8 °F 48.2 °F 63% 30.16 in 10.0 mi NNW 9.2 mph - N/A   Mostly Cloudy
4:15 PM 60.8 °F 48.2 °F 63% 30.16 in 10.0 mi NNW 6.9 mph - N/A   Overcast
4:35 PM 60.8 °F 48.2 °F 63% 30.15 in 10.0 mi North 9.2 mph - N/A   Scattered Clouds
4:55 PM 60.8 °F 48.2 °F 63% 30.15 in 10.0 mi North 9.2 mph - N/A   Partly Cloudy
5:15 PM 60.8 °F 48.2 °F 63% 30.15 in 10.0 mi NNW 8.1 mph - N/A   Mostly Cloudy
5:35 PM 60.8 °F 48.2 °F 63% 30.15 in 10.0 mi North 10.4 mph - N/A   Overcast
5:55 PM 59.0 °F 48.2 °F 67% 30.15 in 10.0 mi North 9.2 mph - N/A   Overcast
6:15 PM 59.0 °F 46.4 °F 63% 30.15 in 10.0 mi North 10.4 mph - N/A   Overcast
6:35 PM 57.2 °F 46.4 °F 67% 30.15 in 10.0 mi North 9.2 mph - N/A   Mostly Cloudy
6:55 PM 57.2 °F 46.4 °F 67% 30.15 in 10.0 mi North 8.1 mph - N/A   Partly Cloudy
7:15 PM 55.4 °F 48.2 °F 77% 30.15 in 10.0 mi North 8.1 mph - N/A   Clear
7:35 PM 55.4 °F 48.2 °F 77% 30.16 in 10.0 mi North 6.9 mph - N/A   Clear
7:55 PM 55.4 °F 48.2 °F 77% 30.16 in 10.0 mi North 6.9 mph - N/A   Clear
8:15 PM 55.4 °F 48.2 °F 77% 30.16 in 10.0 mi North 6.9 mph - N/A   Clear
8:35 PM 53.6 °F 48.2 °F 82% 30.15 in 10.0 mi NNE 4.6 mph - N/A   Clear
8:55 PM 53.6 °F 46.4 °F 77% 30.16 in 10.0 mi North 4.6 mph - N/A   Clear
9:15 PM 53.6 °F 46.4 °F 77% 30.16 in 10.0 mi NNE 4.6 mph - N/A   Clear
9:35 PM 51.8 °F 46.4 °F 82% 30.16 in 10.0 mi NE 5.8 mph - N/A   Clear
9:55 PM 51.8 °F 46.4 °F 82% 30.16 in 10.0 mi NNE 3.5 mph - N/A   Partly Cloudy
10:15 PM 53.6 °F 46.4 °F 77% 30.15 in 10.0 mi NNE 5.8 mph - N/A   Partly Cloudy
10:35 PM 51.8 °F 46.4 °F 82% 30.15 in 10.0 mi NNE 5.8 mph - N/A   Scattered Clouds
10:55 PM 51.8 °F 46.4 °F 82% 30.15 in 10.0 mi NNE 5.8 mph - N/A   Partly Cloudy
11:15 PM 51.8 °F 46.4 °F 82% 30.15 in 10.0 mi NNE 5.8 mph - N/A   Clear
11:35 PM 51.8 °F 44.6 °F 76% 30.15 in 10.0 mi NNE 5.8 mph - N/A   Clear
11:55 PM 51.8 °F 44.6 °F 76% 30.15 in 10.0 mi NNE 5.8 mph - N/A   Clear